Time,TemperatureF,DewpointF,PressureIn,WindDirection,WindDirectionDegrees,WindSpeedMPH,WindSpeedGustMPH,Humidity,HourlyPrecipIn,Conditions,Clouds,dailyrainin,SoftwareType,DateUTC
2013-02-24 00:05:00,13.0,11.0,30.33,SSE,149,0.0,0.0,93,0.00,,,0.00,weatherlink.com 1.10,2013-02-24 08:05:00,
2013-02-24 00:20:00,13.8,12.0,30.34,SW,228,0.0,1.0,94,0.00,,,0.00,weatherlink.com 1.10,2013-02-24 08:20:00,
2013-02-24 00:35:00,14.0,13.0,30.34,NNW,330,0.0,1.0,94,0.00,,,0.00,weatherlink.com 1.10,2013-02-24 08:35:00,
2013-02-24 00:50:00,13.7,12.0,30.35,WSW,252,0.0,1.0,93,0.00,,,0.00,weatherlink.com 1.10,2013-02-24 08:50:00,
2013-02-24 01:05:00,13.2,12.0,30.36,SE,125,0.0,1.0,93,0.00,,,0.00,weatherlink.com 1.10,2013-02-24 09:05:00,
2013-02-24 01:20:00,12.7,11.0,30.36,West,269,0.0,1.0,93,0.00,,,0.00,weatherlink.com 1.10,2013-02-24 09:20:00,
2013-02-24 01:35:00,12.9,12.0,30.37,WSW,250,0.0,0.0,94,0.00,,,0.00,weatherlink.com 1.10,2013-02-24 09:35:00,
2013-02-24 01:50:00,12.5,11.0,30.38,WSW,250,0.0,0.0,93,0.00,,,0.00,weatherlink.com 1.10,2013-02-24 09:50:00,
2013-02-24 02:06:00,11.8,10.0,30.38,WSW,250,0.0,0.0,93,0.00,,,0.00,weatherlink.com 1.10,2013-02-24 10:06:00,
2013-02-24 02:21:00,10.6,9.0,30.38,WSW,250,0.0,0.0,92,0.00,,,0.00,weatherlink.com 1.10,2013-02-24 10:21:00,
2013-02-24 02:36:00,10.6,9.0,30.38,WSW,250,0.0,0.0,93,0.00,,,0.00,weatherlink.com 1.10,2013-02-24 10:36:00,
2013-02-24 02:51:00,10.2,9.0,30.38,WSW,250,0.0,1.0,93,0.00,,,0.00,weatherlink.com 1.10,2013-02-24 10:51:00,
2013-02-24 03:06:00,9.5,8.0,30.38,WSW,243,0.0,0.0,92,0.00,,,0.00,weatherlink.com 1.10,2013-02-24 11:06:00,
2013-02-24 03:21:00,9.4,8.0,30.39,WSW,243,0.0,0.0,92,0.00,,,0.00,weatherlink.com 1.10,2013-02-24 11:21:00,
2013-02-24 03:36:00,9.9,8.0,30.39,SE,137,0.0,0.0,93,0.00,,,0.00,weatherlink.com 1.10,2013-02-24 11:36:00,
2013-02-24 03:51:00,9.8,8.0,30.39,WSW,242,0.0,1.0,92,0.00,,,0.00,weatherlink.com 1.10,2013-02-24 11:51:00,
2013-02-24 04:06:00,8.9,7.0,30.39,WSW,242,0.0,0.0,92,0.00,,,0.00,weatherlink.com 1.10,2013-02-24 12:06:00,
2013-02-24 04:21:00,8.7,7.0,30.40,WSW,242,0.0,0.0,92,0.00,,,0.00,weatherlink.com 1.10,2013-02-24 12:21:00,
2013-02-24 04:51:00,8.1,6.0,30.41,SE,138,0.0,1.0,92,0.00,,,0.00,weatherlink.com 1.10,2013-02-24 12:51:00,
2013-02-24 05:06:00,8.6,7.0,30.42,WSW,248,0.0,0.0,92,0.00,,,0.00,weatherlink.com 1.10,2013-02-24 13:06:00,
2013-02-24 05:21:00,9.0,7.0,30.42,WSW,248,0.0,0.0,93,0.00,,,0.00,weatherlink.com 1.10,2013-02-24 13:21:00,
2013-02-24 05:36:00,9.4,8.0,30.43,WSW,248,0.0,0.0,92,0.00,,,0.00,weatherlink.com 1.10,2013-02-24 13:36:00,
2013-02-24 05:51:00,8.4,7.0,30.43,WSW,248,0.0,0.0,92,0.00,,,0.00,weatherlink.com 1.10,2013-02-24 13:51:00,
2013-02-24 06:06:00,8.4,7.0,30.43,WSW,247,0.0,0.0,93,0.00,,,0.00,weatherlink.com 1.10,2013-02-24 14:06:00,
2013-02-24 06:21:00,8.4,7.0,30.43,WSW,248,0.0,0.0,92,0.00,,,0.00,weatherlink.com 1.10,2013-02-24 14:21:00,
2013-02-24 06:36:00,9.1,8.0,30.43,South,191,0.0,0.0,93,0.00,,,0.00,weatherlink.com 1.10,2013-02-24 14:36:00,
2013-02-24 06:51:00,8.5,7.0,30.44,WSW,256,0.0,0.0,92,0.00,,,0.00,weatherlink.com 1.10,2013-02-24 14:51:00,
2013-02-24 07:06:00,10.1,9.0,30.45,WSW,256,0.0,0.0,94,0.00,,,0.00,weatherlink.com 1.10,2013-02-24 15:06:00,
2013-02-24 07:21:00,12.6,11.0,30.46,SW,218,1.0,1.0,94,0.00,,,0.00,weatherlink.com 1.10,2013-02-24 15:21:00,
2013-02-24 07:36:00,14.7,13.0,30.46,West,263,0.0,1.0,94,0.00,,,0.00,weatherlink.com 1.10,2013-02-24 15:36:00,
2013-02-24 07:51:00,17.2,16.0,30.46,WSW,250,0.0,1.0,95,0.00,,,0.00,weatherlink.com 1.10,2013-02-24 15:51:00,
2013-02-24 08:06:00,19.6,19.0,30.47,SW,233,1.0,1.0,96,0.00,,,0.00,weatherlink.com 1.10,2013-02-24 16:06:00,
2013-02-24 08:21:00,20.6,19.0,30.47,SE,128,0.0,1.0,94,0.00,,,0.00,weatherlink.com 1.10,2013-02-24 16:21:00,
2013-02-24 08:36:00,21.3,20.0,30.47,SW,225,1.0,1.0,94,0.00,,,0.00,weatherlink.com 1.10,2013-02-24 16:36:00,
2013-02-24 08:52:00,22.3,21.0,30.48,SW,224,0.0,1.0,95,0.00,,,0.00,weatherlink.com 1.10,2013-02-24 16:52:00,
2013-02-24 09:07:00,25.8,25.0,30.48,SSW,205,0.0,2.0,97,0.00,,,0.00,weatherlink.com 1.10,2013-02-24 17:07:00,
2013-02-24 09:22:00,27.5,27.0,30.48,SE,142,1.0,3.0,96,0.00,,,0.00,weatherlink.com 1.10,2013-02-24 17:22:00,
2013-02-24 09:37:00,28.5,27.0,30.49,ESE,116,0.0,2.0,95,0.00,,,0.00,weatherlink.com 1.10,2013-02-24 17:37:00,
2013-02-24 09:52:00,29.6,29.0,30.49,SE,130,0.0,1.0,96,0.00,,,0.00,weatherlink.com 1.10,2013-02-24 17:52:00,
2013-02-24 10:07:00,30.6,30.0,30.49,SE,134,0.0,1.0,96,0.00,,,0.00,weatherlink.com 1.10,2013-02-24 18:07:00,
2013-02-24 10:22:00,31.5,30.0,30.48,SE,127,1.0,2.0,95,0.01,,,0.01,weatherlink.com 1.10,2013-02-24 18:22:00,
2013-02-24 10:37:00,31.0,30.0,30.48,NE,45,1.0,2.0,94,0.01,,,0.01,weatherlink.com 1.10,2013-02-24 18:37:00,
2013-02-24 10:52:00,30.4,29.0,30.47,SE,127,1.0,3.0,95,0.02,,,0.02,weatherlink.com 1.10,2013-02-24 18:52:00,
2013-02-24 11:07:00,30.6,29.0,30.47,ENE,67,2.0,4.0,94,0.02,,,0.02,weatherlink.com 1.10,2013-02-24 19:07:00,
2013-02-24 11:22:00,30.6,29.0,30.47,NE,34,2.0,3.0,92,0.02,,,0.03,weatherlink.com 1.10,2013-02-24 19:22:00,
2013-02-24 11:37:00,31.0,28.0,30.46,NNE,29,2.0,3.0,88,0.02,,,0.03,weatherlink.com 1.10,2013-02-24 19:37:00,
2013-02-24 11:52:00,34.4,31.0,30.46,ESE,122,0.0,3.0,86,0.02,,,0.04,weatherlink.com 1.10,2013-02-24 19:52:00,
2013-02-24 12:07:00,35.0,28.0,30.46,NNE,22,2.0,2.0,74,0.03,,,0.05,weatherlink.com 1.10,2013-02-24 20:07:00,
2013-02-24 12:22:00,33.9,26.0,30.45,NNE,29,2.0,3.0,74,0.02,,,0.05,weatherlink.com 1.10,2013-02-24 20:22:00,
2013-02-24 12:37:00,32.7,26.0,30.45,NE,39,1.0,3.0,76,0.03,,,0.06,weatherlink.com 1.10,2013-02-24 20:37:00,
2013-02-24 12:52:00,33.0,26.0,30.45,NNE,13,1.0,2.0,74,0.02,,,0.06,weatherlink.com 1.10,2013-02-24 20:52:00,
2013-02-24 13:07:00,33.1,27.0,30.44,NNW,335,2.0,-999.0,77,-99.99,,,0.06,weatherlink.com 1.10,2013-02-24 21:07:00,
2013-02-24 13:22:00,33.9,26.0,30.43,NNW,333,2.0,2.0,74,0.01,,,0.06,weatherlink.com 1.10,2013-02-24 21:22:00,
2013-02-24 13:37:00,34.1,26.0,30.43,NE,36,2.0,2.0,72,0.00,,,0.06,weatherlink.com 1.10,2013-02-24 21:37:00,
2013-02-24 13:52:00,33.3,26.0,30.42,NNE,30,2.0,3.0,73,0.01,,,0.07,weatherlink.com 1.10,2013-02-24 21:52:00,
2013-02-24 14:07:00,33.6,25.0,30.41,NE,40,0.0,3.0,72,0.01,,,0.07,weatherlink.com 1.10,2013-02-24 22:07:00,
2013-02-24 14:22:00,33.9,25.0,30.41,NE,50,2.0,3.0,71,0.01,,,0.07,weatherlink.com 1.10,2013-02-24 22:22:00,
2013-02-24 14:37:00,34.0,26.0,30.41,NE,44,2.0,3.0,72,0.01,,,0.07,weatherlink.com 1.10,2013-02-24 22:37:00,
2013-02-24 14:52:00,34.1,26.0,30.41,East,91,0.0,4.0,72,0.00,,,0.07,weatherlink.com 1.10,2013-02-24 22:52:00,
2013-02-24 15:07:00,34.5,26.0,30.40,NE,41,3.0,4.0,71,0.00,,,0.07,weatherlink.com 1.10,2013-02-24 23:07:00,
2013-02-24 15:22:00,35.1,26.0,30.40,NE,40,2.0,2.0,70,0.01,,,0.08,weatherlink.com 1.10,2013-02-24 23:22:00,
2013-02-24 15:37:00,34.8,26.0,30.40,East,89,0.0,2.0,69,0.01,,,0.08,weatherlink.com 1.10,2013-02-24 23:37:00,
2013-02-24 15:52:00,34.8,26.0,30.40,ENE,75,0.0,4.0,70,0.01,,,0.08,weatherlink.com 1.10,2013-02-24 23:52:00,
2013-02-24 16:07:00,33.5,25.0,30.39,NE,46,0.0,1.0,72,0.01,,,0.08,weatherlink.com 1.10,2013-02-25 00:07:00,
2013-02-24 16:22:00,33.0,25.0,30.39,NE,41,3.0,4.0,72,0.00,,,0.08,weatherlink.com 1.10,2013-02-25 00:22:00,
2013-02-24 16:52:00,31.3,26.0,30.38,ENE,72,2.0,5.0,79,0.00,,,0.08,weatherlink.com 1.10,2013-02-25 00:52:00,
2013-02-24 17:07:00,31.1,26.0,30.37,NE,47,3.0,4.0,80,0.00,,,0.08,weatherlink.com 1.10,2013-02-25 01:07:00,
2013-02-24 17:22:00,30.9,25.0,30.37,ENE,58,0.0,3.0,80,0.00,,,0.08,weatherlink.com 1.10,2013-02-25 01:22:00,
2013-02-24 17:37:00,30.1,25.0,30.37,ENE,65,1.0,3.0,82,0.00,,,0.08,weatherlink.com 1.10,2013-02-25 01:37:00,
2013-02-24 17:52:00,29.3,25.0,30.36,NE,55,1.0,2.0,83,0.00,,,0.08,weatherlink.com 1.10,2013-02-25 01:52:00,
2013-02-24 18:07:00,28.4,25.0,30.36,NE,52,1.0,2.0,85,0.00,,,0.08,weatherlink.com 1.10,2013-02-25 02:07:00,
2013-02-24 18:22:00,27.8,24.0,30.36,NE,56,1.0,2.0,86,0.00,,,0.08,weatherlink.com 1.10,2013-02-25 02:22:00,
2013-02-24 18:37:00,27.8,24.0,30.36,ENE,62,1.0,2.0,87,0.00,,,0.08,weatherlink.com 1.10,2013-02-25 02:37:00,
2013-02-24 18:52:00,27.4,25.0,30.35,ENE,67,3.0,5.0,89,0.00,,,0.08,weatherlink.com 1.10,2013-02-25 02:52:00,
2013-02-24 19:07:00,28.2,25.0,30.34,ENE,58,2.0,4.0,89,0.00,,,0.08,weatherlink.com 1.10,2013-02-25 03:07:00,
2013-02-24 19:22:00,27.9,25.0,30.33,NE,52,2.0,4.0,87,0.00,,,0.08,weatherlink.com 1.10,2013-02-25 03:22:00,
2013-02-24 19:37:00,27.4,25.0,30.33,NE,44,1.0,4.0,89,0.00,,,0.08,weatherlink.com 1.10,2013-02-25 03:37:00,
2013-02-24 19:52:00,26.6,24.0,30.33,NE,52,2.0,3.0,90,0.00,,,0.08,weatherlink.com 1.10,2013-02-25 03:52:00,
2013-02-24 20:07:00,26.8,24.0,30.32,ENE,61,1.0,3.0,90,0.00,,,0.08,weatherlink.com 1.10,2013-02-25 04:07:00,
2013-02-24 20:22:00,27.5,25.0,30.32,ENE,72,3.0,4.0,90,0.00,,,0.08,weatherlink.com 1.10,2013-02-25 04:22:00,
2013-02-24 20:37:00,28.0,26.0,30.31,NE,44,3.0,5.0,90,0.00,,,0.08,weatherlink.com 1.10,2013-02-25 04:37:00,
2013-02-24 20:53:00,29.3,26.0,30.30,ENE,64,1.0,4.0,88,0.00,,,0.08,weatherlink.com 1.10,2013-02-25 04:53:00,
2013-02-24 21:08:00,29.6,27.0,30.30,ENE,65,6.0,6.0,88,0.00,,,0.08,weatherlink.com 1.10,2013-02-25 05:08:00,
2013-02-24 21:23:00,29.7,27.0,30.30,NE,56,6.0,7.0,88,0.00,,,0.08,weatherlink.com 1.10,2013-02-25 05:23:00,
2013-02-24 21:38:00,29.6,27.0,30.29,ENE,68,4.0,7.0,88,0.00,,,0.08,weatherlink.com 1.10,2013-02-25 05:38:00,
2013-02-24 21:53:00,29.9,27.0,30.29,NE,47,4.0,9.0,87,0.00,,,0.08,weatherlink.com 1.10,2013-02-25 05:53:00,
2013-02-24 22:08:00,29.6,27.0,30.29,ENE,60,5.0,7.0,89,0.00,,,0.08,weatherlink.com 1.10,2013-02-25 06:08:00,
2013-02-24 22:23:00,29.5,27.0,30.28,NE,40,1.0,7.0,89,0.00,,,0.08,weatherlink.com 1.10,2013-02-25 06:23:00,
2013-02-24 22:38:00,29.2,26.0,30.27,ENE,75,3.0,7.0,89,0.00,,,0.08,weatherlink.com 1.10,2013-02-25 06:38:00,
2013-02-24 22:53:00,27.7,25.0,30.27,East,101,3.0,6.0,90,0.00,,,0.08,weatherlink.com 1.10,2013-02-25 06:53:00,
2013-02-24 23:08:00,26.6,24.0,30.26,East,79,6.0,7.0,91,0.00,,,0.08,weatherlink.com 1.10,2013-02-25 07:08:00,
2013-02-24 23:23:00,26.6,25.0,30.26,ENE,77,6.0,7.0,93,0.00,,,0.08,weatherlink.com 1.10,2013-02-25 07:23:00,
2013-02-24 23:38:00,27.4,25.0,30.25,East,96,2.0,5.0,92,0.00,,,0.08,weatherlink.com 1.10,2013-02-25 07:38:00,
2013-02-24 23:53:00,27.6,25.0,30.24,ENE,61,5.0,5.0,91,0.00,,,0.08,weatherlink.com 1.10,2013-02-25 07:53:00,